Dewpoint
62 62 63 62 62 62 63 63 63 64 64 64 64 64 64 64 64 65 64 64 64 64 63 63 63 64 64 64 64 64 65 65 65 64 64 63 63 63 63 63 63 63 63 63 63 62 62 61 61 61 61 61 61 61 60 60 61 60 59 57 55 55 57 55 54 54 54 50 51 50 47 47 42 43 44 47 48 51 50 49 48 49 48 48 49
61 61 63 63 62 61 61 62 63 64 63 64 63 63 64 64 64 65 64 64 64 63 63 63 63 64 64 64 64 64 65 65 65 65 64 64 63 63 63 63 63 63 63 62 63 63 62 62 62 61 61 61 61 60 60 60 60 60 60 58 57 55 56 56 54 54 55 49 48 45 45 46 45 43 45 47 48 51 49 47 45 45 45 46 46
60 61 62 61 61 61 61 61 61 61 61 62 63 63 64 64 64 65 65 64 64 64 63 63 63 63 64 64 64 64 65 65 65 65 65 64 64 63 63 63 63 63 62 63 63 63 62 62 62 62 61 61 61 61 61 60 60 60 60 59 59 58 55 56 55 54 54 53 48 45 44 44 46 42 42 45 48 50 47 45 43 44 45 46 45
59 61 61 61 61 61 60 61 61 61 61 61 61 63 64 64 64 64 65 65 64 64 64 63 63 63 64 64 64 64 65 65 65 65 65 64 64 64 64 63 63 63 63 63 63 63 62 62 62 62 61 61 61 61 61 61 60 60 60 60 60 59 56 55 55 56 54 54 47 43 44 45 44 42 41 44 47 49 47 47 45 44 44 45 44
60 59 60 59 60 61 61 61 62 61 61 61 61 62 62 63 64 64 64 65 64 64 63 63 63 63 64 64 64 65 65 65 65 65 65 65 65 64 64 64 64 63 63 63 63 62 63 62 62 62 61 61 61 61 60 60 60 60 60 60 59 59 58 55 54 54 53 53 51 44 45 43 44 44 43 43 46 48 46 45 44 42 43 45 45
61 60 59 58 57 59 60 61 61 61 61 61 61 62 62 63 64 64 64 64 65 64 64 63 63 63 63 64 64 65 65 65 65 65 65 65 65 65 65 64 64 64 63 63 63 63 62 62 62 62 61 61 61 61 61 60 60 60 60 60 59 59 58 57 56 54 53 53 53 47 44 44 42 44 42 44 46 45 43 42 41 43 43 44 44
61 61 61 60 58 58 59 61 61 61 61 61 62 63 64 64 64 64 64 64 64 64 64 64 63 63 64 64 64 65 65 65 65 65 65 65 65 65 65 64 64 64 64 64 63 63 63 63 62 62 61 61 61 61 61 61 60 60 60 60 60 59 58 57 56 55 53 52 47 47 45 44 45 43 40 42 44 44 45 43 42 40 44 44 44
61 61 62 61 61 60 60 62 62 63 62 62 63 64 64 64 64 64 64 64 64 64 64 64 64 64 64 64 64 65 65 65 65 65 65 65 65 65 65 64 64 64 64 64 64 63 63 63 63 62 62 62 62 62 61 61 61 60 60 60 60 59 58 56 55 54 52 50 49 44 43 44 42 45 42 42 42 41 42 43 42 42 42 45 44
61 61 61 61 62 62 62 62 63 63 63 63 64 64 65 64 64 64 64 64 64 64 65 65 64 64 64 64 64 64 65 65 65 65 65 65 65 65 65 64 64 64 64 64 64 63 63 63 63 62 62 61 59 59 59 60 61 60 60 60 59 59 58 56 54 52 50 49 46 44 42 42 43 43 42 41 41 42 43 43 43 44 42 42 42
61 61 61 62 62 62 62 63 63 63 63 63 64 64 64 64 64 64 64 64 64 65 65 65 65 64 64 64 64 64 65 65 62 59 60 64 65 65 65 65 64 64 64 63 63 63 63 63 63 61 60 59 57 55 54 54 57 60 60 59 59 58 57 55 53 51 49 47 46 43 42 42 42 43 43 44 44 44 43 43 42 42 42 41 43
60 61 61 61 62 62 62 62 62 62 62 62 62 62 62 62 62 62 62 62 62 62 62 62 63 64 64 64 64 64 64 64 57 52 53 56 64 65 65 65 64 64 64 63 63 63 63 63 63 62 60 59 58 53 52 51 52 53 53 54 57 58 56 55 53 51 50 49 47 44 44 43 43 42 42 43 44 43 44 42 42 41 41 39 38
60 60 61 61 61 61 62 61 61 61 62 62 62 62 62 62 62 61 61 61 61 62 62 62 63 63 63 64 64 64 64 59 53 51 51 51 57 64 65 65 64 64 64 64 63 63 62 62 62 62 62 61 61 59 55 51 50 50 49 49 49 50 51 54 53 51 51 51 48 46 45 45 45 43 41 42 43 43 43 42 42 41 41 40 40
60 60 60 61 61 61 61 61 61 61 62 62 62 62 61 61 61 61 61 61 62 62 62 63 63 63 63 63 63 63 64 57 50 50 50 50 51 59 65 65 64 64 64 64 64 63 62 61 61 61 61 60 60 60 59 57 51 49 50 49 49 47 45 46 48 53 52 52 50 49 46 46 44 43 42 41 43 43 42 40 41 41 41 39 40
61 60 60 61 61 61 61 61 61 61 61 61 61 61 61 61 62 62 62 62 62 62 62 62 63 63 63 64 63 63 64 58 49 49 49 49 49 54 65 65 64 64 64 64 64 63 62 61 61 60 60 60 60 60 59 58 56 53 53 53 52 52 47 44 44 46 49 52 52 51 50 47 46 46 44 43 42 41 42 41 42 41 41 39 41
60 60 60 61 60 60 60 60 60 60 61 61 61 61 61 61 61 61 61 62 61 62 62 62 62 62 62 63 63 63 63 54 49 47 47 48 48 51 64 65 64 64 64 64 64 63 62 61 61 61 60 59 59 58 59 58 56 55 54 53 53 53 52 51 50 50 51 52 52 53 52 47 48 48 46 44 42 42 42 41 40 40 43 43 42
59 59 59 59 59 59 59 59 60 60 60 60 60 61 61 61 61 61 61 61 62 62 62 62 62 62 62 63 63 63 63 53 48 47 48 48 48 55 63 65 64 64 64 64 64 63 63 62 61 61 60 59 56 51 54 57 56 55 54 53 53 52 52 52 47 46 51 52 52 52 51 49 44 47 46 43 42 46 44 43 43 42 40 39 39
58 58 58 58 59 59 59 59 59 59 60 60 60 60 61 61 61 61 61 61 61 61 62 62 62 62 62 62 63 63 63 55 49 48 48 48 49 58 63 64 64 64 64 64 63 63 62 61 61 60 60 59 53 47 48 52 56 55 54 53 52 51 50 49 44 42 42 43 44 44 43 42 40 40 39 39 41 43 43 42 41 40 39 38 39
57 58 58 58 59 59 59 59 58 59 60 60 60 60 61 61 61 60 61 61 61 61 62 62 62 62 62 62 62 62 62 58 50 50 48 47 51 60 62 64 64 64 64 64 63 62 62 59 60 60 59 59 49 46 46 51 55 54 53 52 50 49 49 47 46 45 41 41 41 41 41 40 40 39 39 38 38 41 40 38 41 39 40 39 37
54 56 58 58 59 59 59 59 59 58 59 59 60 60 60 60 60 60 61 61 61 61 61 61 61 62 62 62 60 61 62 59 51 50 47 46 51 60 62 63 64 64 64 63 62 62 61 59 57 58 58 56 47 45 44 50 55 54 53 52 51 50 50 47 46 45 44 45 45 45 44 43 45 45 45 39 38 42 42 42 42 39 38 39 40
52 53 54 55 57 58 59 59 59 58 58 59 59 59 59 59 59 59 60 60 60 60 60 61 61 61 61 61 62 62 62 62 56 48 47 46 48 60 63 62 62 63 63 63 62 60 60 60 56 49 49 48 45 44 44 46 54 54 53 52 52 51 51 48 47 47 46 46 46 46 46 46 45 46 46 43 43 45 43 44 41 40 39 40 40
52 52 52 54 55 57 58 59 58 58 58 58 58 58 58 58 58 58 59 59 60 60 60 60 60 60 61 61 62 62 62 62 58 47 47 47 47 53 63 62 63 63 63 62 62 60 59 58 58 51 46 46 44 43 43 43 47 54 52 52 52 52 48 48 47 46 46 46 46 45 45 44 45 44 44 43 42 43 43 42 43 42 41 40 39
52 52 52 52 54 55 56 57 58 58 58 58 57 57 57 57 57 58 58 59 59 59 59 58 59 60 60 61 61 62 61 58 61 47 46 46 46 48 61 63 62 63 63 63 61 60 59 58 58 52 45 45 44 43 43 43 43 52 52 46 45 43 47 48 47 46 46 45 44 43 43 42 42 43 42 42 42 43 44 43 43 43 43 42 40
52 52 52 52 52 53 55 56 56 58 58 58 57 57 57 57 57 57 58 58 58 58 58 58 58 59 59 60 61 61 62 60 55 53 45 45 45 46 51 58 54 61 63 62 61 61 60 58 57 51 45 44 43 42 42 42 43 49 45 43 42 40 43 46 45 45 44 44 43 43 42 42 42 42 42 42 42 43 43 44 43 43 43 43 43
52 52 52 52 52 52 53 55 56 57 57 57 57 57 57 57 57 57 57 57 57 58 59 59 59 59 59 60 60 61 61 62 54 51 49 44 45 45 46 50 53 60 62 63 62 61 60 59 56 48 44 44 43 42 42 42 45 43 42 41 40 40 45 44 44 45 43 42 42 43 42 41 42 42 42 43 42 43 44 44 43 43 43 43 42
52 52 52 53 52 52 53 54 55 56 57 57 57 57 57 57 57 57 57 57 57 57 58 58 59 59 59 59 60 61 61 61 60 52 47 45 44 44 45 47 49 50 60 62 61 61 55 52 49 46 44 43 42 41 41 41 42 42 41 40 42 44 45 44 44 44 43 42 42 42 42 41 41 42 44 44 44 43 42 42 42 42 42 42 42
50 51 51 52 53 53 52 53 53 55 56 57 57 57 57 57 57 57 57 57 57 57 57 58 58 59 59 60 60 60 61 61 61 58 49 48 45 44 44 45 48 48 53 59 55 52 49 48 47 45 44 44 45 46 45 45 40 40 40 41 45 44 43 44 44 43 43 42 42 42 42 42 41 42 43 43 42 41 41 41 40 40 41 40 40
49 50 50 51 52 53 53 53 53 54 55 56 57 57 57 58 57 57 58 58 58 58 58 57 58 58 58 59 60 60 60 60 60 59 56 54 52 49 46 47 46 47 50 54 53 55 51 50 49 46 46 43 44 44 44 43 41 42 42 43 44 44 43 43 43 43 43 42 42 42 42 42 41 40 41 41 41 41 40 40 40 39 40 40 40
48 49 49 50 51 52 52 48 51 53 54 55 56 57 57 58 58 57 58 58 58 58 58 58 58 58 58 59 59 59 60 60 60 60 58 56 55 55 52 51 52 52 53 55 57 57 54 47 46 48 49 47 45 45 46 45 43 41 42 42 43 43 43 43 43 44 44 44 43 43 41 41 40 40 39 40 40 40 39 39 39 39 38 39 39
48 48 49 49 50 50 52 52 53 53 54 54 56 57 57 57 58 58 59 59 59 59 59 59 59 59 59 59 59 59 59 59 59 53 57 51 54 56 54 54 55 55 53 51 56 56 52 50 50 49 49 48 46 47 45 44 43 42 42 42 42 42 42 42 42 42 43 42 42 42 40 40 40 39 39 39 40 39 38 38 39 40 38 38 37
48 48 49 49 49 49 51 52 53 53 53 54 55 56 50 51 54 58 58 53 51 51 52 58 59 60 60 60 60 59 59 60 53 50 50 48 48 49 51 51 50 54 51 47 52 56 53 52 51 50 49 50 49 47 47 45 44 42 42 39 41 41 41 41 41 41 41 41 41 40 40 40 40 39 39 38 39 39 38 36 37 38 37 35 35
47 48 48 48 47 48 48 50 52 53 53 54 54 54 56 54 47 48 51 52 49 48 47 49 49 51 57 59 58 52 51 51 49 49 48 47 47 47 47 47 46 47 46 47 52 54 51 52 51 51 49 51 50 49 47 46 44 43 42 41 41 41 39 41 41 39 38 39 40 40 39 39 39 38 38 38 38 38 37 37 37 36 35 35 33
47 47 48 48 47 46 47 47 49 52 53 54 54 54 55 55 56 48 45 46 47 47 47 47 47 46 47 52 56 59 50 48 47 46 46 46 46 45 45 45 45 45 45 46 50 50 51 52 51 52 51 50 50 49 49 49 46 45 43 41 40 40 40 40 41 41 40 39 38 37 38 38 39 38 37 38 36 38 37 37 37 35 35 35 34
46 48 48 48 46 46 46 47 48 51 52 53 53 54 54 54 55 55 53 44 43 44 45 46 46 46 46 45 46 50 51 51 48 47 45 45 45 44 44 45 45 44 44 48 51 50 52 53 53 53 52 51 51 51 50 50 49 47 46 44 42 40 40 41 39 42 39 39 38 37 37 36 36 36 35 36 36 37 37 36 36 36 35 35 33
46 48 48 47 46 46 47 49 50 51 53 53 53 54 54 54 55 55 55 55 53 46 43 42 43 44 44 45 46 45 46 46 46 46 45 45 44 44 44 45 43 43 45 51 52 52 53 54 53 53 53 52 52 51 50 50 49 48 46 46 45 44 42 42 41 40 39 38 38 37 36 37 35 35 35 35 35 36 35 35 36 35 35 35 35
46 44 41 43 46 47 47 48 52 53 53 53 53 53 53 53 53 54 54 54 55 55 56 54 46 43 48 46 45 44 45 45 46 45 44 44 43 42 43 47 43 44 47 51 52 54 53 53 53 53 53 52 52 51 51 51 49 48 47 46 46 46 43 41 40 40 40 40 39 39 37 38 39 37 34 34 34 34 34 34 35 36 36 36 35
46 47 47 46 46 47 47 47 49 53 53 53 53 53 52 53 53 54 53 54 54 55 54 57 56 47 43 44 45 45 45 44 45 45 44 43 42 43 46 46 46 46 47 50 51 53 54 54 53 53 53 53 53 52 51 51 50 49 48 48 46 45 44 42 40 40 41 41 39 39 38 38 38 36 37 39 38 37 37 34 34 34 35 35 35
45 46 45 45 45 46 46 47 47 47 46 48 50 52 52 52 52 53 53 54 54 54 55 55 55 56 48 47 46 44 43 44 44 43 43 42 41 45 52 49 49 48 47 49 50 51 53 53 53 53 53 53 53 53 52 51 51 50 47 48 47 46 45 44 42 40 41 40 41 41 38 37 37 37 35 35 34 34 34 33 33 33 33 33 33
44 44 43 42 43 45 46 46 46 41 46 48 50 52 51 53 54 53 53 54 53 53 55 56 52 56 57 56 52 49 48 44 43 43 42 41 39 45 50 51 51 51 49 50 50 51 52 53 54 53 53 53 53 53 53 52 51 50 49 47 47 46 42 42 39 42 41 41 41 40 38 37 37 37 35 35 34 34 34 33 33 33 33 33 33
43 40 38 37 39 44 45 44 44 45 46 47 47 47 46 48 51 52 54 55 54 54 53 56 56 56 57 57 54 51 49 51 50 48 47 46 46 47 49 52 52 52 52 51 50 49 51 52 52 53 53 53 53 53 53 52 51 50 49 48 46 46 43 42 41 41 40 40 39 39 38 38 38 37 35 35 34 34 35 34 34 33 33 33 33
41 42 40 37 40 42 43 43 44 45 44 45 46 46 46 46 48 48 49 50 52 54 56 55 55 57 58 58 56 52 52 52 52 51 50 48 47 47 49 50 52 52 52 53 53 51 51 52 53 53 53 53 53 53 53 52 52 50 49 47 45 43 43 42 41 41 40 40 39 39 38 38 38 37 36 35 35 36 35 34 34 33 34 34 34
40 41 38 38 38 42 42 43 44 44 45 44 45 45 45 45 45 45 47 47 47 48 49 52 54 56 55 51 48 48 55 55 54 53 52 51 50 48 48 50 51 53 52 53 53 53 52 52 52 53 53 53 53 53 53 53 52 50 48 46 43 43 43 43 42 41 40 39 39 39 38 38 37 37 36 36 36 36 36 35 34 34 34 33 33
38 39 39 39 39 41 41 42 43 43 44 43 45 44 44 45 45 45 44 45 43 45 47 48 49 50 46 43 43 43 53 56 55 54 54 53 52 51 49 50 52 53 54 54 54 54 54 53 53 53 53 53 53 53 53 53 52 51 48 45 43 42 42 42 41 41 40 39 39 38 38 38 37 37 37 37 36 36 36 36 36 35 34 34 34
36 38 38 38 39 39 40 41 42 44 44 44 44 41 42 44 45 44 44 44 44 44 45 45 46 46 45 40 39 38 46 52 49 52 53 52 52 51 51 51 52 53 54 55 55 55 55 54 54 54 54 54 54 52 52 52 52 50 49 47 45 43 42 42 41 40 40 39 39 38 37 37 37 37 37 36 37 37 36 36 35 35 34 35 34
35 36 36 37 37 38 38 40 40 41 42 41 42 42 43 44 44 44 44 44 44 44 45 45 45 45 45 43 41 43 46 47 49 50 50 49 51 50 52 52 51 52 53 54 55 55 55 54 53 53 53 54 54 54 54 53 52 50 48 46 44 43 43 42 41 41 40 39 39 38 37 37 36 36 36 36 36 36 36 36 35 35 34 34 35
33 34 34 35 36 36 36 37 38 39 39 40 42 43 42 44 44 44 43 44 43 44 44 44 44 44 43 45 44 44 45 46 44 45 46 47 46 47 49 48 48 48 49 50 51 50 48 48 50 50 50 52 53 53 52 52 52 51 50 48 46 43 43 43 42 42 41 40 39 38 37 37 37 36 36 36 36 36 35 35 35 34 34 34 34
31 32 33 34 34 34 34 35 35 37 38 38 39 39 40 41 41 42 42 42 42 43 44 44 44 43 43 44 44 43 45 45 45 45 44 44 45 47 46 46 46 47 47 48 48 49 48 48 47 47 46 48 49 50 50 51 51 51 51 50 49 48 46 46 47 43 41 40 39 39 38 37 37 36 35 36 35 35 36 35 35 34 34 34 34
30 30 31 32 33 33 33 33 34 34 36 36 36 36 37 38 38 38 38 39 40 41 42 43 43 43 43 43 43 43 43 44 45 45 44 44 46 45 44 44 44 45 45 46 46 47 47 48 48 48 47 47 48 49 49 49 50 50 49 49 49 49 49 48 46 45 43 43 42 40 38 37 36 36 35 35 35 35 35 35 35 34 34 34 34
28 29 29 30 31 31 31 32 32 32 33 34 34 34 34 35 35 35 36 37 38 38 39 40 41 41 41 41 41 42 42 43 44 43 43 43 44 44 44 44 43 43 44 44 44 44 45 46 47 47 46 46 46 47 48 48 48 49 49 49 49 49 48 44 47 46 45 44 43 42 40 38 37 37 36 36 36 35 34 34 34 34 34 34 34
27 27 28 28 30 30 30 31 31 31 32 33 33 33 33 33 33 33 33 34 35 35 36 36 37 38 38 39 39 40 40 40 42 43 42 42 43 43 43 43 42 44 43 43 44 44 44 45 45 45 47 47 47 47 47 47 48 48 48 48 47 42 41 41 44 46 43 44 42 42 42 41 39 38 37 36 36 35 35 35 34 34 33 33 33
26 26 26 27 28 29 30 30 30 29 29 30 31 31 31 31 31 31 31 31 32 32 33 34 34 35 36 36 36 36 37 38 39 40 40 41 41 42 42 42 42 42 43 43 44 44 44 44 45 45 45 46 46 46 47 47 48 48 47 47 42 41 40 39 40 41 43 43 43 42 42 41 41 39 38 38 37 36 35 35 34 34 33 33 33
25 25 24 25 26 27 28 28 28 28 28 28 29 29 29 30 30 29 30 30 30 30 31 32 32 32 33 34 34 34 34 35 35 36 37 37 38 39 40 40 40 41 42 42 43 43 44 44 44 44 44 43 44 45 46 47 48 48 45 42 41 40 40 39 42 39 39 41 43 42 41 40 39 38 38 38 38 37 35 35 34 34 34 33 33